Regional Weather Roundup
Issued by NWS

Home | Current Version | Previous Version | Text Only | Print | Product List | Glossary On
Versions: 1 2 3 4 5 6 7 8 9 10 11 12 13 14 15 16 17 18 19 20 21 22 23 24 25 26 27 28 29 30 31 32 33 34 35 36 37 38 39 40 41 42 43 44 45 46 47 48 49 50
000
ASUS43 KLOT 140708
RWRIL

ILLINOIS REGIONAL WEATHER ROUNDUP
NATIONAL WEATHER SERVICE CHICAGO/ROMEOVILLE IL
100 AM CST THU DEC 14 2017

NOTE: "FAIR" INDICATES FEW OR NO CLOUDS BELOW 12,000 FEET WITH NO
SIGNIFICANT WEATHER AND/OR OBSTRUCTIONS TO VISIBILITY.

* THESE STATIONS ARE NOT UNDER NWS QUALITY CONTROL. THEY ALSO MAY NOT
  REPORT WEATHER SUCH AS PRECIPITATION OR FOG.

ILZ001-002-007-009-015-016-024-140800-
NORTHWEST ILLINOIS

CITY           SKY/WX    TMP DP  RH WIND       PRES   REMARKS
MOLINE         CLOUDY    26  16  65 N13       29.93R WCI  15
STERLING*      CLOUDY    25  18  74 N10       29.90R WCI  15
SAVANNA*       CLOUDY    24  16  70 N9        29.93R WCI  15
$$

ILZ003-004-008-010-011-017-018-140800-
NORTH CENTRAL ILLINOIS

CITY           SKY/WX    TMP DP  RH WIND       PRES   REMARKS
ROCKFORD       PTCLDY    20  12  71 N14       29.91R WCI   7
FREEPORT*      PTCLDY    20  13  75 N12       29.93R WCI   8
ROCHELLE*      CLOUDY    22  17  79 N10       29.89R WCI  11
DE KALB*       CLOUDY    21  16  80 N13G22    29.86R WCI   8
PERU*          MOCLDY    25  17  74 N12       29.88R WCI  14
$$

ILZ005-006-012>014-019>023-140800-
NORTHEAST ILLINOIS

CITY           SKY/WX    TMP DP  RH WIND       PRES   REMARKS
CHICAGO-OHARE  FLURRIES  26  18  71 N16       29.82R WCI  14
CHICAGO-MIDWAY FLURRIES  28  22  78 N14       29.82R WCI  17
AURORA         MOCLDY    22  16  78 NW16G24   29.86R WCI   8
LANSING*       CLOUDY    30  20  68 N14G22    29.80R WCI  19
JOLIET*        CLOUDY    29  21  71 NW8G16    29.84R WCI  21
WAUKEGAN       CLEAR     20  14  77 NW8       29.84R WCI  10
DUPAGE AIRPORT MOCLDY    23  18  81 NW14G24   29.83R WCI  11
KANKAKEE*      CLOUDY    29  19  64 N14       29.83R WCI  19
WHEELING       CLOUDY    25  18  74 N14G25    29.85R WCI  13
MORRIS*        CLOUDY    27  20  76 NW9       29.84R WCI  17
ROMEOVILLE*    CLOUDY    27  20  75 N14       29.83R WCI  16
$$

LMZ740>746-140800-
SOUTHERN LAKE MICHIGAN

STATION/POSITION SKY/WX   TEMP    WIND        PRES    VSBY  WAVE
                          AIR SEA DIR/SP/G                  HT/PER
                          (F)     (DEG/KT/KT) (MB)    (MI)  (FT/S)
HARRISON CRIB              29     330/ 25/ 28   N/A
BURNHAM HARBOR             28     280/ 14/ 23   N/A
CALUMET HARBOR             29     340/ 20/ 28 1008.7R
BURNS HARBOR               30      10/ 22/ 31 1008.8R
MICHIGAN CITY              28     360/ 30/ 35   N/A
$$

ILZ025>027-034>036-040-047-049-050-058-095>099-140800-
WEST-CENTRAL ILLINOIS

CITY           SKY/WX    TMP DP  RH WIND       PRES   REMARKS
QUINCY         CLOUDY    32  23  69 N14       29.92R WCI  22
GALESBURG*     CLOUDY    27  19  72 NW9       29.92R WCI  18
MACOMB*        CLOUDY    28  19  69 N10       29.95R WCI  18
JACKSONVILLE*  CLOUDY    29  18  63 N10G22    29.91R WCI  20
PITTSFIELD*    CLOUDY    34  25  69 NW15      29.91S WCI  24
$$

ILZ028>032-037-038-041>044-048-051>054-059>061-140800-
CENTRAL ILLINOIS

CITY           SKY/WX    TMP DP  RH WIND       PRES   REMARKS
PONTIAC        CLOUDY    27  20  74 N14G21    29.85S WCI  15
BLOOMINGTON    CLOUDY    26  18  71 N18       29.85R WCI  13
DECATUR        CLOUDY    29  17  61 N15       29.88R WCI  18
PEORIA         CLOUDY    28  16  60 N8G20     29.90R WCI  20
LACON*         CLEAR     24  16  70 NW9       29.88R WCI  15
LINCOLN*       CLOUDY    30  20  64 N8        29.89R WCI  23
SPRINGFIELD    CLOUDY    30  19  63 N16       29.90R WCI  19
TAYLORVILLE    CLOUDY    30  19  64 N17G25    29.89R WCI  18
$$

ILZ033-039-045-046-055>057-062-063-140800-
EAST-CENTRAL ILLINOIS

CITY           SKY/WX    TMP DP  RH WIND       PRES   REMARKS
CHAMPAIGN      CLOUDY    28  18  66 NW16      29.85R WCI  16
DANVILLE*      CLOUDY    28  19  69 NW16      29.80R WCI  16
RANTOUL*       CLOUDY    30  20  68 NW12      29.85R WCI  20
MATTOON        CLOUDY    29  19  66 N17G29    29.85R WCI  17
PARIS*         PTCLDY    25  19  79 NW9       29.84R WCI  16
$$

ILZ079-100>102-140800-
SOUTHWEST ILLINOIS

CITY           SKY/WX    TMP DP  RH WIND       PRES   REMARKS
ALTON          CLOUDY    36  27  69 NW9G20    29.89R WCI  29
CAHOKIA*       CLOUDY    39  22  50 NW20G28   29.90R WCI  29
SPARTA*        CLOUDY    38  26  62 NW9G17    29.91R WCI  31
$$

ILZ064>066-069>071-074>076-080>082-084>086-088>090-092>094-140800-
SOUTH-CENTRAL ILLINOIS

CITY           SKY/WX    TMP DP  RH WIND       PRES   REMARKS
CARBONDALE     CLOUDY    39  26  59 N15       29.88R WCI  31
CAIRO*         CLEAR     41  31  68 N14       29.86R
EFFINGHAM*     CLOUDY    33  24  69 NW14G22   29.87R WCI  23
MARION         CLOUDY    40  27  59 NW7       29.89R
MT. VERNON     CLOUDY    36  24  62 VRB3      29.87R
CENTRALIA*     CLOUDY    37  26  67 N13       29.87R WCI  28
SALEM*         CLOUDY    37  25  61 NW13      29.87R WCI  28
METROPOLIS*    CLEAR     40  29  65 N12G18    29.86S
$$

ILZ067-068-072-073-078-083-087-091-140800-
SOUTHEAST ILLINOIS

CITY           SKY/WX    TMP DP  RH WIND       PRES   REMARKS
LAWRENCEVILLE  CLOUDY    37  25  61 NW17G30   29.84R WCI  27
FLORA*         CLOUDY    37  24  60 NW15G23   29.87R WCI  28
FAIRFIELD*     CLOUDY    37  24  60 NW9G18    29.85R WCI  30
HARRISBURG*    CLOUDY    39  27  61 NW16G23   29.87R WCI  30
ROBINSON*      CLOUDY    33  24  71 N15       29.85R WCI  22
CARMI*         CLOUDY    38  28  66 NW20G28   29.84R WCI  28
$$

ABBREVIATIONS USED IN REMARKS
   TC - TEMPERATURE IN CELSIUS
  WCI - WIND CHILL INDEX
   HX - HEAT INDEX
  VSB - VISIBILITY
$$




USA.gov is the U.S. government's official web portal to all federal, state and local government web resources and services.